Location: Agos
(43.0333°N, 0.0667°W)
Time: 16:16:24
(UTC+00:00)

Daily predictions for brighter satellites

Satellite Brightness Start Highest point End
(mag) Time Altitude Azimuth Time Altitude Azimuth Time Altitude Azimuth
BlueWalker 3 2.6 18:48:28 10° WSW 18:52:20 59° NNW 18:56:11 10° NE
MINOTAUR 4 R/B 4.4 18:50:51 10° NNE 18:54:04 38° E 18:57:16 10° S
USA 281 3.2 18:47:35 10° NNE 18:54:10 71° ESE 19:00:42 10° SSW
Cosmos 2082 4.2 18:53:36 10° S 18:58:41 37° ESE 19:03:47 10° NE
Cosmos 1733 Rocket 3.1 18:55:54 10° S 19:00:07 58° E 19:04:22 10° NNE
Lacrosse 5 rocket 3.8 18:57:56 10° WNW 19:01:07 20° NNW 19:04:13 10° NNE
USA 215 3.4 18:56:17 10° NE 19:02:52 88° NW 19:09:25 10° SW
Cosmos 2227 Rocket 2.3 18:57:14 10° SSW 19:02:54 85° WNW 19:08:37 10° NNE
Cosmos 1674 Rocket 4.2 18:59:03 10° N 19:03:00 34° ENE 19:06:53 10° SE
Cosmos 1726 3.6 19:00:47 10° SSW 19:04:06 40° WNW 19:07:29 10° N
PSLV R/B 4.1 19:00:55 10° S 19:04:50 70° WSW 19:08:44 10° NNW
CZ-4C R/B 3.4 18:58:29 10° NNW 19:05:21 47° NE 19:13:27 10° ESE
Cosmos 1378 Rocket 4.0 19:04:07 10° N 19:08:21 41° ENE 19:12:32 10° SSE
Cosmos 2219 3.1 19:02:48 10° SSW 19:08:23 79° ESE 19:14:02 10° NNE
Cosmos 1470 3.4 19:06:17 10° SSE 19:09:47 32° E 19:13:17 10° NNE
RESURS DK-1 3.6 19:11:44 10° SSE 19:14:47 20° ESE 19:17:51 10° ENE
CZ-4 R/B 1.3 19:10:56 10° SSE 19:14:48 87° WSW 19:18:47 10° NNW
Cosmos 1992 Rocket 4.2 19:11:19 10° S 19:16:16 47° ESE 19:21:15 10° NNE
Feng Yun 1-1 Rocket 4.3 19:11:13 10° SSE 19:16:48 73° ENE 19:22:34 10° N
Cosmos 2233 Rocket 4.1 19:10:51 10° N 19:17:03 85° W 19:23:16 10° S
SJ-6B 2.8 19:14:27 10° SSE 19:18:11 54° ENE 19:21:52 10° N
CSL-04 Rocket 4.1 19:13:06 10° SE 19:18:20 45° ENE 19:23:32 10° N
YAOGAN 1 3.8 19:15:12 10° S 19:19:20 45° W 19:23:29 10° NNW
ATLAS 2AS CENTAUR R/B 3.7 19:13:57 10° SSE 19:20:09 28° ESE 19:26:14 10° NE
Meteor 1-24 Rocket 4.4 19:15:06 10° N 19:20:44 39° ENE 19:26:20 10° SE
SJ 16-02 2.4 19:18:00 10° N 19:21:48 28° ENE 19:24:28 16° ESE
ISS -3.8 19:20:55 10° WNW 19:24:16 82° SW 19:26:39 18° SE
GPS 2-04 Rocket1 3.9 19:22:21 10° SW 19:25:13 24° S 19:27:02 16° SE
SL-16 R/B 2.2 19:19:52 10° NNW 19:25:34 71° ENE 19:31:13 10° SSE
NOSS 2-1 (C) 2.8 19:23:52 10° SW 19:27:19 82° NW 19:30:26 10° NE
Resurs 1-3 3.7 19:25:01 10° SSE 19:29:15 55° ENE 19:33:33 10° N
USA 186 1.6 19:28:46 10° SSE 19:31:51 67° ENE 19:35:00 10° N
NOSS 2-1 (D) 3.1 19:28:32 10° SW 19:32:03 72° NW 19:35:15 10° NNE
Cosmos 968 Rocket 4.2 19:28:31 10° NNW 19:33:32 55° WSW 19:38:29 10° S
Cosmos 2263 Rocket 2.3 19:30:39 10° S 19:35:59 50° ESE 19:41:22 10° NE
Meteor 1-15 Rocket 4.3 19:30:59 10° S 19:36:47 75° E 19:42:41 10° NNE
USA 267 3.3 19:31:35 16° ESE 19:36:58 70° NE 19:43:28 10° NW
Cosmos 1486 Rocket 4.3 19:31:57 10° N 19:37:05 48° ENE 19:40:45 18° SE
Cosmos 1908 Rocket 3.7 19:33:36 10° SSE 19:37:54 50° E 19:42:13 10° NNE
Cosmos 1758 4.3 19:37:31 23° ESE 19:38:25 25° E 19:41:39 10° NE
Resurs 01 Rocket 2.5 19:36:36 20° ESE 19:38:45 31° ENE 19:42:38 10° N
NOSS 3-4 (A) 4.3 19:33:25 10° WSW 19:38:49 48° NW 19:44:43 10° NNE
NOSS 3-4 (C) 4.3 19:33:31 10° WSW 19:38:55 49° NW 19:44:50 10° NNE
ATLAS 3B R/B 4.3 19:35:58 10° NNW 19:41:56 24° NNE 19:47:05 13° ENE
GEOS 3 Rocket 3.6 19:44:46 10° NE 19:50:10 73° SE 19:55:32 10° SSW
Meteor 2-15 4.4 19:44:53 10° N 19:51:01 69° E 19:57:02 10° SSE
Cosmos 2034 Rocket 4.4 19:45:24 10° N 19:51:12 42° ENE 19:54:36 23° SE
Cosmos 220 Rocket 3.9 19:51:00 10° NNW 19:55:11 67° ENE 19:57:13 29° SE
Meteor 2-8 Rocket 4.4 19:50:23 10° N 19:56:32 68° E 20:01:58 14° SSE
SL-4 R/B 3.9 19:52:36 10° WNW 19:56:45 30° N 20:00:42 11° NE
Okean O Rocket 3.1 19:54:24 10° SSW 19:58:29 37° W 20:02:32 10° NNW
Cosmos 1975 Rocket 3.9 19:54:49 10° NNE 19:58:48 31° ENE 19:59:17 30° E
IRS-1C Rocket 4.1 19:57:26 20° SSE 20:01:03 67° ENE 20:06:18 10° N
Meteor 2-15 Rocket 4.4 19:55:27 10° N 20:01:34 63° E 20:05:51 20° SSE
CSL-04 Debris 4.4 19:56:57 10° S 20:02:21 69° WSW 20:07:48 10° NNW
Cosmos 2346 Rocket 4.5 19:56:18 10° S 20:02:29 85° W 20:08:45 10° N
Cosmos 1072 Rocket 4.4 19:58:37 10° N 20:05:01 84° E 20:11:04 11° S
Tsikada Rocket 4.4 20:02:35 26° SE 20:05:07 37° E 20:10:42 10° NNE
Okean-O 2.6 20:03:03 20° SSE 20:06:08 87° WSW 20:10:35 10° NNW
Atlas Centaur 2 3.4 20:03:45 10° SW 20:06:32 17° S 20:06:37 17° S
Ariane Rocket 3.9 20:11:03 28° ENE 20:11:32 29° ENE 20:15:50 10° N
Cosmos 1782 Rocket 3.5 20:10:30 29° SSE 20:12:37 62° E 20:16:57 10° NNE
Landsat 5 3.2 20:08:57 10° NNE 20:12:57 78° ESE 20:16:27 14° S
Meteor 2-19 Rocket 4.4 20:09:30 10° S 20:15:33 67° E 20:21:36 10° NNE
SPOT 1/Viking Rocket 3.5 20:13:21 24° SSE 20:16:35 89° E 20:21:50 10° NNW
Cosmos 2227 4.2 20:14:49 10° S 20:20:27 60° ESE 20:26:08 10° NNE
Iridium 82 4.4 20:20:52 75° NE 20:20:52 75° NE 20:24:13 10° N
Cosmos 1943 3.3 20:17:54 10° NNW 20:23:29 59° ENE 20:24:57 45° ESE
Meteor 2-5 Rocket 4.3 20:19:22 10° NNW 20:25:10 60° W 20:30:55 10° S
Cosmos 1354 Rocket 4.0 20:21:13 10° NNW 20:26:29 63° ENE 20:27:34 50° ESE
IRS-P2 Rocket 4.5 20:27:14 39° SSE 20:29:15 86° ENE 20:34:33 10° NNW
Cosmos 1464 Rocket 4.3 20:23:22 10° NNW 20:29:44 70° W 20:35:14 14° S
Cosmos 1603 3.9 20:24:33 10° NNW 20:30:09 52° ENE 20:31:09 46° E
BlueWalker 3 4.2 20:28:29 10° WNW 20:31:31 21° NNW 20:33:42 14° NNE
SPOT 5 3.7 20:35:23 34° NE 20:35:23 34° NE 20:39:27 10° N
CARTOSAT-1 3.4 20:39:59 87° ESE 20:40:02 87° ENE 20:44:22 10° NNW
Geosat 4.0 20:39:58 57° E 20:40:22 59° ENE 20:45:19 10° NNW
Lacrosse 5 rocket 4.1 20:40:01 10° NNW 20:41:20 11° N 20:42:39 10° NNE
MetOp-B 4.0 20:42:51 63° ESE 20:43:27 69° ENE 20:48:47 10° N
Cosmos 1025 Rocket 3.0 20:40:04 10° NNW 20:44:21 73° W 20:44:32 72° WSW
Cosmos 1908 4.4 20:43:28 25° SW 20:45:10 40° WNW 20:48:45 10° N
Cosmos 1340 Rocket 3.4 20:44:36 10° NNW 20:48:16 52° W 20:48:16 52° W
RESURS DK-1 3.9 20:48:40 10° SW 20:52:26 35° WNW 20:56:16 10° N
CZ-4C R/B 3.6 20:46:54 10° NW 20:54:11 52° WSW 20:58:39 28° S
Terra 3.2 20:56:28 28° NNE 20:56:28 28° NNE 20:59:15 10° N
BREEZE-M DEB (TANK) 4.3 20:52:06 10° WNW 20:54:05 28° WNW 20:54:05 28° WNW
SJ 16-02 3.0 20:56:27 10° NW 21:00:12 28° W 21:01:24 24° SW
Cosmos 489 Rocket 4.4 21:02:36 10° NNW 21:08:55 80° WSW 21:09:41 68° S
H-2A R/B 3.4 21:10:16 48° NNW 21:10:16 48° NNW 21:13:29 10° NNW
Cosmos 1634 Rocket 3.8 21:03:16 10° N 21:09:38 83° E 21:10:04 77° SE
ATLAS 2AS CENTAUR R/B 3.1 21:02:56 10° SW 21:10:35 71° NW 21:17:59 10° NNE
Timation 2 Rocket 4.3 21:08:11 10° SW 21:14:15 63° WNW 21:20:38 10° NNE
Resurs 01 Rocket 3.5 21:14:08 23° WSW 21:15:13 25° W 21:18:53 10° NW
ERS-1 Rocket 3.7 21:19:39 47° N 21:19:39 47° N 21:23:16 10° N
Cosmos 2263 Rocket 4.2 21:15:34 10° WSW 21:20:10 26° NW 21:24:49 10° N
USA 267 4.1 21:18:55 33° SSW 21:20:14 36° SW 21:26:11 10° WNW
Meteor 2-10 Rocket 4.0 21:21:57 55° NNW 21:21:57 55° NNW 21:25:58 10° N
Cosmos 1844 Rocket 4.1 21:28:04 28° NNE 21:28:04 28° NNE 21:30:37 10° NNE
Meteor 1-21 Rocket 4.4 21:23:11 10° NNW 21:28:50 72° WNW 21:28:50 72° WNW
Meteor 2-14 Rocket 4.5 21:30:45 77° NNW 21:30:45 77° NNW 21:36:33 10° N
SPOT 3 Rocket 4.1 21:33:45 55° NW 21:33:45 55° NW 21:37:53 10° NNW
ATLAS 3B R/B 2.9 21:26:22 10° NNW 21:34:01 73° NE 21:34:21 72° ENE
SL-4 R/B 4.1 21:32:55 10° NW 21:35:57 27° NNW 21:35:57 27° NNW
ADEOS Rocket 3.2 21:40:45 86° W 21:40:45 86° W 21:48:03 10° NNW
Cosmos 2344 4.2 21:38:46 10° NW 21:47:35 73° NE 21:49:32 62° ESE
Ariane Rocket 4.4 21:51:13 33° WNW 21:51:13 33° WNW 21:55:00 10° NNW
FALCON 9 R/B 4.4 21:52:53 10° W 22:04:20 27° SW 22:04:20 27° SW
Cosmos 1833 Rocket 4.5 22:23:42 10° NNW 22:26:22 26° N 22:26:22 26° N
Terra 4.4 22:35:13 17° NW 22:35:13 17° NW 22:36:38 10° NW
NOSS 3-1 (C) 4.4 22:27:51 10° NW 22:33:58 62° WNW 22:33:58 62° WNW
Cosmos 2082 Rocket 4.4 22:32:21 10° N 22:34:29 17° NNE 22:34:29 17° NNE
